Weather History for KRDM - March, 2013

Change the Weather History Date:

Tuesday, March 26, 2013

  Actual Average Record
Temperature  
Mean Temperature 44 °F 42 °F  
Max Temperature 51 °F 56 °F 77 °F (2015)
Min Temperature 37 °F 27 °F 14 °F (1975)
Degree Days  
Heating Degree Days 21 23  
Month to date heating degree days 674 662  
Since 1 July heating degree days 5141 5335  
Cooling Degree Days 0 0  
Month to date cooling degree days 0 0  
Year to date cooling degree days 0 0  
Moisture  
Dew Point 33 °F    
Average Humidity 66    
Maximum Humidity 82    
Minimum Humidity 50    
Precipitation  
Precipitation T in 0.03 in 0.21 in (1984)
Month to date precipitation 0.20 0.55  
Year to date precipitation 0.62 2.17  
Sea Level Pressure  
Sea Level Pressure 29.95 in    
Wind  
Wind Speed 5 mph (NW)    
Max Wind Speed 13 mph    
Max Gust Speed 16 mph    
Visibility 10 miles    
Events Rain    
T = Trace of Precipitation, MM = Missing Value Source: NWS Daily Summary

Daily Weather History Graph

Daily Weather History Graph

Search for Another Location

Airport or City:

Trip Planner

Search our weather history database for the weather conditions in past years. The results will help you decide how hot, cold, wet, or windy it might be!

Date:

Astronomy

Mar. 26, 2013 Rise Set
Actual Time 6:56 AM PDT 7:24 PM PDT
Civil Twilight 6:27 AM PDT 7:53 PM PDT
Nautical Twilight 5:52 AM PDT 8:28 PM PDT
Astronomical Twilight 5:17 AM PDT 9:03 PM PDT
Moon 7:08 PM PDT (3/26) 6:16 AM PDT (3/26)
Length of Visible Light 13h 26m
Length of Day
12h 28m
Full, 100% of the Moon is Illuminated
Mar 26
Full
Mar 27
Full
Apr 2
Last Quarter
Apr 10
New
Apr 18
First Quarter

Hourly Weather History & Observations

Time (PDT) Temp. Windchill Dew Point Humidity Pressure Visibility Wind Dir Wind Speed Gust Speed Precip Events Conditions
12:56 AM 39.9 °F 35.8 °F 28.9 °F 65% 29.95 in 10.0 mi NW 5.8 mph - 0.00 in   Overcast
1:56 AM 39.9 °F 36.7 °F 30.0 °F 68% 29.95 in 10.0 mi NW 4.6 mph - N/A   Overcast
2:56 AM 39.0 °F 34.8 °F 28.9 °F 67% 29.94 in 10.0 mi NW 5.8 mph - N/A   Overcast
3:56 AM 39.0 °F 34.0 °F 30.0 °F 70% 29.94 in 10.0 mi NW 6.9 mph - N/A   Overcast
4:25 AM 37.4 °F 33.8 °F 30.2 °F 75% 29.94 in 10.0 mi WNW 4.6 mph - N/A   Overcast
4:51 AM 37.4 °F 33.8 °F 30.2 °F 75% 29.94 in 10.0 mi NW 4.6 mph - N/A   Overcast
4:56 AM 37.9 °F 35.5 °F 30.0 °F 73% 29.95 in 10.0 mi NW 3.5 mph - N/A   Overcast
5:33 AM 37.4 °F 33.8 °F 30.2 °F 75% 29.94 in 10.0 mi NW 4.6 mph - N/A   Overcast
5:56 AM 37.0 °F 34.5 °F 30.9 °F 79% 29.96 in 10.0 mi NW 3.5 mph - N/A   Overcast
6:56 AM 37.0 °F - 30.9 °F 79% 29.97 in 10.0 mi Calm Calm - N/A   Overcast
7:56 AM 37.9 °F 34.4 °F 32.0 °F 79% 29.98 in 10.0 mi NNW 4.6 mph - N/A   Overcast
8:56 AM 39.0 °F 35.7 °F 30.9 °F 73% 29.99 in 10.0 mi NNW 4.6 mph - N/A   Overcast
9:56 AM 41.0 °F - 32.0 °F 70% 29.99 in 10.0 mi Calm Calm - N/A   Overcast
10:56 AM 44.1 °F 40.8 °F 33.1 °F 65% 29.98 in 10.0 mi WNW 5.8 mph - N/A   Overcast
11:22 AM 44.6 °F 42.2 °F 33.8 °F 66% 29.96 in 10.0 mi NW 4.6 mph - N/A   Scattered Clouds
11:56 AM 46.0 °F 44.8 °F 32.0 °F 58% 29.97 in 10.0 mi West 3.5 mph - N/A   Scattered Clouds
12:56 PM 46.9 °F - 33.1 °F 59% 29.96 in 10.0 mi NW 3.5 mph - N/A   Overcast
1:56 PM 50.0 °F - 33.1 °F 52% 29.95 in 10.0 mi Variable 3.5 mph - N/A   Overcast
2:56 PM 51.1 °F - 33.1 °F 50% 29.94 in 10.0 mi NNW 6.9 mph - N/A   Overcast
3:56 PM 50.0 °F - 34.0 °F 54% 29.93 in 10.0 mi NNW 8.1 mph - N/A   Overcast
4:56 PM 48.9 °F - 35.1 °F 59% 29.93 in 10.0 mi NNW 10.4 mph - N/A   Overcast
5:56 PM 48.0 °F - 35.1 °F 61% 29.93 in 10.0 mi NNW 10.4 mph - N/A   Overcast
6:56 PM 46.9 °F - 35.1 °F 63% 29.93 in 10.0 mi NNW 9.2 mph - N/A   Overcast
7:56 PM 46.0 °F 43.9 °F 35.1 °F 66% 29.94 in 10.0 mi WNW 4.6 mph - N/A   Overcast
8:56 PM 46.0 °F 43.1 °F 34.0 °F 63% 29.95 in 10.0 mi West 5.8 mph - N/A   Overcast
9:05 PM 46.4 °F 43.5 °F 33.8 °F 62% 29.94 in 10.0 mi WNW 5.8 mph - N/A   Overcast
9:14 PM 46.4 °F 44.3 °F 35.6 °F 66% 29.94 in 9.0 mi West 4.6 mph - 0.00 in Rain Light Rain
9:56 PM 45.0 °F 43.5 °F 37.0 °F 74% 29.96 in 10.0 mi West 3.5 mph - 0.00 in   Overcast
10:56 PM 43.0 °F 41.3 °F 37.0 °F 80% 29.96 in 10.0 mi WNW 3.5 mph - N/A   Overcast
11:56 PM 43.0 °F - 36.0 °F 76% 29.95 in 10.0 mi Calm Calm - N/A   Overcast